(163564) = 2002 TV128

Discovered at Palomar on 2002-10-04 by NEAT.

Orbit

Orbit type: Main Belt

Note: WebGL enabled browser required.

epoch2024-03-31.0
epoch JD2460400.5
perihelion date2024-08-07.68398
perihelion JD2460530.18398
argument of perihelion (°)122.92291
ascending node (°)302.60673
inclination (°)8.08037
eccentricity0.0802188
perihelion distance (AU)2.7901294
Tisserand w.r.t. Jupiter3.2
ΔV w.r.t. Earth (km/sec)10.7
semimajor axis (AU)3.0334707
mean anomaly (°)335.80752
mean daily motion (°/day)0.18654950
aphelion distance (AU)3.277
period (years)5.28
P-vector [x]0.40720223
P-vector [y]0.78401668
P-vector [z]0.46851273
Q-vector [x]-0.90563012
Q-vector [y]0.41309841
Q-vector [z]0.09583210
absolute magnitude14.54
phase slope0.15
uncertainty0
referenceMPEC 2024-C163
observations used1201
oppositions16
arc length (days)7804
first opposition used2002
last opposition used2024
residual rms (arc-secs)0.68
perturbers coarse indicatorM-v
perturbers precise indicator003Ek
first observation date used2002-09-07.0
last observation date used2024-01-19.0
computer nameMPCLINUX
JD of orbit computation2456966.890928
perihelion JD uncertainty (days)2.8866E-04
argument of perihelion uncertainty (°)7.4649E-05
ascending node uncertainty (°)4.9679E-05
inclination uncertainty (°)6.9092E-06
eccentricity uncertainty 5.5490E-08
perihelion distance uncertainty (AU)1.7773E-07
Minimum Orbit Intersection Distances (in AU)
for orbit epoch: 2460200.5, reference: E2024-CG3
Mercury2.48156
Venus2.07544
Earth1.81232
Mars1.22931
Jupiter1.95839
Saturn6.23431
Uranus15.386
Neptune26.9928

Observations

1239 total observations over interval: 2002 09 07.29989 – 2024 01 19.098688
These data are available for download (format description).

Date (UT) J2000 RA J2000 Dec Magn Location Ref
2002 09 07.29989 00 34 53.06 +15 00 12.7 19.3   704 – Lincoln Laboratory ETS, New Mexico MPS 83024
2002 09 07.31427 00 34 52.44 +15 00 13.8 19.6   704 – Lincoln Laboratory ETS, New Mexico MPS 83024
2002 09 07.32898 00 34 51.88 +15 00 13.0 19.4   704 – Lincoln Laboratory ETS, New Mexico MPS 83024
2002 09 07.34329 00 34 51.30 +15 00 12.5 19.5   704 – Lincoln Laboratory ETS, New Mexico MPS 83024
2002 10 04.23388 00 14 34.54 +13 53 57.7 18.0   644 – Palomar Mountain/NEAT MPS 64059
2002 10 04.24425 00 14 34.03 +13 53 55.0 17.9   644 – Palomar Mountain/NEAT MPS 64059
2002 10 04.25486 00 14 33.50 +13 53 52.4 17.8   644 – Palomar Mountain/NEAT MPS 64059
2002 10 05.25422 00 13 45.49 +13 49 35.0 18.7   704 – Lincoln Laboratory ETS, New Mexico MPS 64059
2002 10 05.26977 00 13 44.74 +13 49 30.5 18.9   704 – Lincoln Laboratory ETS, New Mexico MPS 64059
2002 10 05.28535 00 13 43.95 +13 49 27.0 18.8   704 – Lincoln Laboratory ETS, New Mexico MPS 64059
2002 10 05.30090 00 13 43.16 +13 49 23.2 18.9   704 – Lincoln Laboratory ETS, New Mexico MPS 64059
2002 10 05.31644 00 13 42.43 +13 49 19.3 18.8   704 – Lincoln Laboratory ETS, New Mexico MPS 64059
2002 10 09.25306 00 10 37.25 +13 31 35.6 18.4   704 – Lincoln Laboratory ETS, New Mexico MPS 64059
2002 10 09.26866 00 10 36.50 +13 31 31.4 18.4   704 – Lincoln Laboratory ETS, New Mexico MPS 64059
2002 10 09.28424 00 10 35.75 +13 31 27.1 18.4   704 – Lincoln Laboratory ETS, New Mexico MPS 64059
2002 10 09.29974 00 10 35.00 +13 31 22.8 18.5   704 – Lincoln Laboratory ETS, New Mexico MPS 64059
2002 10 09.31556 00 10 34.22 +13 31 18.7 18.7   704 – Lincoln Laboratory ETS, New Mexico MPS 64059
2002 10 12.17608 00 08 25.03 +13 17 46.8 17.9   704 – Lincoln Laboratory ETS, New Mexico MPS 64059
2002 10 12.19155 00 08 24.34 +13 17 41.8 18.4   704 – Lincoln Laboratory ETS, New Mexico MPS 64059
2002 10 12.23759 00 08 22.24 +13 17 29.2 18.3   704 – Lincoln Laboratory ETS, New Mexico MPS 64059
2002 11 06.10333 23 55 11.77 +11 20 09.8 18.6 R 699 – Lowell Observatory-LONEOS MPS 66108
2002 11 06.12329 23 55 11.41 +11 20 05.4   699 – Lowell Observatory-LONEOS MPS 66108
2002 11 06.14325 23 55 11.08 +11 20 00.4   699 – Lowell Observatory-LONEOS MPS 66108
2002 11 06.16062 23 55 10.79 +11 19 55.7 18.8   704 – Lincoln Laboratory ETS, New Mexico MPS 66108
2002 11 06.16327 23 55 10.77 +11 19 55.5   699 – Lowell Observatory-LONEOS MPS 66108
2002 11 06.17711 23 55 10.55 +11 19 50.9 19.1   704 – Lincoln Laboratory ETS, New Mexico MPS 66108
2002 11 06.19395 23 55 10.11 +11 19 48.4 19.7   704 – Lincoln Laboratory ETS, New Mexico MPS 66108
2002 11 06.21053 23 55 09.89 +11 19 44.9 18.8   704 – Lincoln Laboratory ETS, New Mexico MPS 66108
2002 12 01.13807 23 55 49.89 +10 15 16.7 19.4   704 – Lincoln Laboratory ETS, New Mexico MPS 68053
2002 12 01.18363 23 55 50.67 +10 15 14.2 19.5   704 – Lincoln Laboratory ETS, New Mexico MPS 68053
2002 12 01.19877 23 55 50.94 +10 15 13.0 19.5   704 – Lincoln Laboratory ETS, New Mexico MPS 68053
2003 12 04.33702 07 46 25.18 +25 38 30.7 18.9   704 – Lincoln Laboratory ETS, New Mexico MPS 94685
2003 12 04.34935 07 46 24.95 +25 38 29.0 19.4   704 – Lincoln Laboratory ETS, New Mexico MPS 94685
2003 12 04.36138 07 46 24.61 +25 38 29.8 19.7   704 – Lincoln Laboratory ETS, New Mexico MPS 94685
2003 12 04.37345 07 46 24.31 +25 38 30.6 19.4   704 – Lincoln Laboratory ETS, New Mexico MPS 94685
2003 12 04.38559 07 46 24.09 +25 38 29.3 19.6   704 – Lincoln Laboratory ETS, New Mexico MPS 94685
2003 12 17.31663 07 39 12.93 +25 37 16.4 18.5 R 699 – Lowell Observatory-LONEOS MPS 94685
2003 12 17.32995 07 39 12.35 +25 37 16.9   699 – Lowell Observatory-LONEOS MPS 94685
2003 12 17.34335 07 39 11.80 +25 37 16.6   699 – Lowell Observatory-LONEOS MPS 94685
2003 12 17.35665 07 39 11.16 +25 37 16.0   699 – Lowell Observatory-LONEOS MPS 94685
2003 12 18.34609 07 38 28.11 +25 37 13.4 18.6   704 – Lincoln Laboratory ETS, New Mexico MPS 94685
2003 12 18.35926 07 38 27.48 +25 37 13.4 18.8   704 – Lincoln Laboratory ETS, New Mexico MPS 94685
2003 12 18.37222 07 38 26.93 +25 37 13.2 18.9   704 – Lincoln Laboratory ETS, New Mexico MPS 94685
2003 12 18.38518 07 38 26.34 +25 37 12.9 18.9   704 – Lincoln Laboratory ETS, New Mexico MPS 94685
2003 12 18.39822 07 38 25.71 +25 37 13.2 18.7   704 – Lincoln Laboratory ETS, New Mexico MPS 94685
2003 12 22.33535 07 35 21.85 +25 36 52.9 19.2   704 – Lincoln Laboratory ETS, New Mexico MPS 94685
2003 12 22.34828 07 35 21.15 +25 36 53.1 19.5   704 – Lincoln Laboratory ETS, New Mexico MPS 94685
2003 12 22.36136 07 35 20.48 +25 36 52.5 19.6   704 – Lincoln Laboratory ETS, New Mexico MPS 94685
2003 12 22.37459 07 35 19.81 +25 36 52.4 19.9   704 – Lincoln Laboratory ETS, New Mexico MPS 94685
2003 12 22.38755 07 35 19.02 +25 36 55.1 19.5   704 – Lincoln Laboratory ETS, New Mexico MPS 94685
2003 12 25.98670 07 32 15.85 +25 36 16.0 18.1 R 106 – Crni Vrh MPS 94685
2003 12 25.99269 07 32 15.51 +25 36 15.8 18.0 R 106 – Crni Vrh MPS 94685
2003 12 25.99870 07 32 15.19 +25 36 15.9 18.1 R 106 – Crni Vrh MPS 94685
2003 12 27.28817 07 31 06.53 +25 35 59.5 18.4   704 – Lincoln Laboratory ETS, New Mexico MPS 95795
2003 12 27.30125 07 31 05.78 +25 35 59.3 18.7   704 – Lincoln Laboratory ETS, New Mexico MPS 95795
2003 12 27.31490 07 31 05.06 +25 35 59.8 18.8   704 – Lincoln Laboratory ETS, New Mexico MPS 95795
2003 12 27.32797 07 31 04.27 +25 35 58.8 18.7   704 – Lincoln Laboratory ETS, New Mexico MPS 95795
2003 12 27.34124 07 31 03.54 +25 35 59.1 18.9   704 – Lincoln Laboratory ETS, New Mexico MPS 95795
2004 01 22.23098 07 06 28.38 +25 13 34.0 19.3   704 – Lincoln Laboratory ETS, New Mexico MPS 96999
2004 01 22.24379 07 06 27.67 +25 13 32.5 18.8   704 – Lincoln Laboratory ETS, New Mexico MPS 96999
2004 01 22.25674 07 06 26.94 +25 13 31.3 18.6   704 – Lincoln Laboratory ETS, New Mexico MPS 96999
2004 01 22.26973 07 06 26.26 +25 13 30.3 18.8   704 – Lincoln Laboratory ETS, New Mexico MPS 96999
2004 01 22.28275 07 06 25.60 +25 13 28.8 18.5   704 – Lincoln Laboratory ETS, New Mexico MPS 96999
2004 01 30.21811 07 00 01.90 +24 59 30.0 18.9   704 – Lincoln Laboratory ETS, New Mexico MPS 97789
2004 01 30.23052 07 00 01.29 +24 59 28.2 18.5   704 – Lincoln Laboratory ETS, New Mexico MPS 97789
2004 01 30.24287 07 00 00.82 +24 59 26.7 18.5   704 – Lincoln Laboratory ETS, New Mexico MPS 97789
2004 01 30.25531 07 00 00.18 +24 59 25.4 18.9   704 – Lincoln Laboratory ETS, New Mexico MPS 97789
2004 01 30.26774 06 59 59.61 +24 59 23.8 19.0   704 – Lincoln Laboratory ETS, New Mexico MPS 97789
2004 02 15.21094 06 51 30.34 +24 24 09.3 18.9   704 – Lincoln Laboratory ETS, New Mexico MPS 100060
2004 02 15.22257 06 51 30.10 +24 24 07.4 19.4   704 – Lincoln Laboratory ETS, New Mexico MPS 100060
2004 02 15.23433 06 51 29.80 +24 24 05.0 19.1   704 – Lincoln Laboratory ETS, New Mexico MPS 100060
2004 02 15.24610 06 51 29.54 +24 24 03.3 19.3   704 – Lincoln Laboratory ETS, New Mexico MPS 100060
2004 02 15.25781 06 51 29.32 +24 24 01.4 19.3   704 – Lincoln Laboratory ETS, New Mexico MPS 100060
2005 03 13.33526 12 46 35.93 -16 27 31.1 18.8 R 699 – Lowell Observatory-LONEOS MPS 129044
2005 03 13.35151 12 46 35.34 -16 27 29.7   699 – Lowell Observatory-LONEOS MPS 129044
2005 03 13.36778 12 46 34.57 -16 27 27.5   699 – Lowell Observatory-LONEOS MPS 129044
2005 03 13.38403 12 46 33.82 -16 27 26.4   699 – Lowell Observatory-LONEOS MPS 129044
2005 04 06.22282 12 28 04.87 -15 10 56.4 18.4 R 699 – Lowell Observatory-LONEOS MPS 130710
2005 04 06.23908 12 28 04.09 -15 10 50.6   699 – Lowell Observatory-LONEOS MPS 130710
2005 04 06.25534 12 28 03.34 -15 10 47.7   699 – Lowell Observatory-LONEOS MPS 130710
2005 04 06.27163 12 28 02.43 -15 10 42.7   699 – Lowell Observatory-LONEOS MPS 130710
2005 04 14.24779 12 22 02.91 -14 32 50.5 18.4 R 703 – Catalina Sky Survey MPS 131650
2005 04 14.25843 12 22 02.39 -14 32 46.5 18.7 R 703 – Catalina Sky Survey MPS 131650
2005 04 14.26906 12 22 01.97 -14 32 42.9 19.2 R 703 – Catalina Sky Survey MPS 131650
2005 04 14.28439 12 22 01.26 -14 32 38.7 18.7 R 703 – Catalina Sky Survey MPS 131650
2005 05 04.50735 12 10 47.57 -12 55 12.4 19.5 R E12 – Siding Spring Survey MPS 133302
